{"data":{"norad_id":65605,"epoch":"2026-09-20T22:00:03.000096Z","epoch_age_seconds":75989,"freshness":"FRESH","line1":"1 65605U 25207P   26263.91670139 -.00014215  00000+0 -43885-3 0  9998","line2":"2 65605  97.2855 326.4988 0002011  89.6488 340.8837 15.33440636  5796","mean_motion":15.33440636,"eccentricity":0.0002011,"inclination_deg":97.2855,"raan_deg":326.4988,"arg_perigee_deg":89.6488,"mean_anomaly_deg":340.8837,"bstar":-0.00043885,"rev_number":579,"period_min":93.906471903357,"perigee_km":464.17989200837,"apogee_km":466.9324253968,"semimajor_km":6843.6931587026,"source":"CELESTRAK","updated_at":"2026-09-21T09:00:35.655580Z"}}